Tracking 20724 objects as of 4-Jun-2020
HD Live streaming from Space Station
objects crossing your sky now

BLOCK DM-SL R/B

Track BLOCK DM-SL R/B now!


NORAD ID: 28900
Int'l Code: 2005-044B
Perigee: 305.6 km
Apogee: 32,718.9 km
Inclination: 2.9 °
Period: 574.2 minutes
Semi major axis: 22883 km
RCS: 18.3139 m2 (large)
Launch date: November 8, 2005
Source: Sea Launch (SEAL)
Launch site: SEA LAUNCH (SEAL)

Note: This is a ROCKET BODY
aabbcc
Your satellite tracking list
Your tracking list is empty




NASA's NSSDC Master Catalog

Two Line Element Set (TLE):
1 28900U 05044B   20155.30091601 +.00000532 +00000-0 +17219-3 0  9998
2 28900 002.9498 088.4818 7082322 094.8774 341.7143 02.50799243127490
Source of the keplerian elements: AFSPC